Terminal Aerodrome Forecast
Issued by NWS Sterling, VA

Current Version | Previous Version | Graphics & Text | Print | Product List | Glossary On
Versions: 1 2 3 4 5 6 7 8 9 10 11 12 13 14 15 16 17 18 19 20 21 22 23 24
000
FTUS41 KLWX 262100 AAA
TAFDCA
TAF AMD
KDCA 262101Z 2621/2718 19007KT P6SM SCT060
     FM270900 19006KT P6SM SCT050 BKN130
     FM271200 22005KT 6SM -SHRA VCTS SCT050CB BKN090=

USA.gov is the U.S. government's official web portal to all federal, state and local government web resources and services.